Terug naar catalogus

STARLINK-36329

ActiefCommunicatieSSO
NORAD 67739·PAYLOAD·🇺🇸 United States

Gelanceerd Feb 11, 2026 vanaf Vandenberg Space Force Base

Loading…

Volgende Passages (komende 24 uur)

TLE

VersSource: CelesTrak SupGP

Epoch: Sep 15, 2026, 03:13 UTC

1 67739C 26026U   26258.13451389 -.00013427  00000+0 -41679-3 0  2581
2 67739  97.2848 310.1168 0000971  92.9083 247.7895 15.33446322    16

Volg STARLINK-36329 in realtime met AllMySat

Download on the App Store